Content
SEND FEEDBACK

Daily
Averages
Monthly
Summary
Brazil

FLORIANOPOLIS, SANTA CATARINA


Home > South America > Brazil > Santa Catarina
Elevation: 16 feet     Latitude: 27 40S     Longitude: 048 33W

WEATHER
 
SELECT A DAY
Number of Records: 185,705;   Date Range: 6/30/96 - 10/29/14
 
SHARE

PRINT THIS DATA

[ ← Previous Day ]
WEATHER ALMANAC - AUGUST 29, 2013
[ Next Day → ]
[ °C ]   °F
Weather ElementAverageHighLow
Temperature59.2 °F69.8 °F (1:00 pm)48.2 °F (5:00 am)
Dewpoint49 °F53.6 °F (10:00 pm)44.6 °F (12:00 pm)
Humidity70.7 %94 % (1:00 am)33 % (3:00 pm)
Barometer30.25 in30.33 in (1:00 am)30.18 in (3:00 pm)
Wind Speed10.1 mph13.8 mph (1:00 pm)
Weather ElementAverage
Visibility12 mi
Wind DirectionNW (314.1 °)

Weather ElementTotal
Precipitation---
Heating Degree Days6 (Base 65)
Growing Degree Days9 (Base 50)
Averaged from 27 records on August 29, 2013
WEATHER CONDITIONS BREAKOUT
WIND DIRECTION BREAKOUT
WEATHER BY HOUR - AUGUST 29, 2013
[ °C ]   °F
Local TimeTemperatureDewpointHumidityBarometerVisibilityWind DirectionWind SpeedGust SpeedPrecipitationEventsConditions
1:00 AM51.8 °F50.0 °F94 %30.33 inWNW (300°)5.8 mphClear
2:00 AM50.0 °F48.2 °F94 %30.30 inNW (320°)6.9 mphClear
3:00 AM50.0 °F47.0 °F86 %30.30 in12.0 miNW (310°)5.8 mph
3:00 AM50.0 °F46.4 °F87 %30.27 inNW (310°)5.8 mphClear
4:00 AM50.0 °F48.2 °F94 %30.27 inWNW (300°)4.6 mphClear
5:00 AM48.2 °F46.4 °F93 %30.27 inNW (310°)6.9 mphClear
6:00 AM51.8 °F48.2 °F88 %30.27 inNNW (340°)8.1 mphClear
7:00 AM51.8 °F48.2 °F88 %30.27 inNNW (340°)9.2 mphClear
8:00 AM55.4 °F50.0 °F82 %30.30 inNNW (340°)10.4 mphClear
9:00 AM58.0 °F49.0 °F65 %30.32 in12.0 miNorth (350°)9.2 mph
9:00 AM59.0 °F50.0 °F72 %30.30 inNorth (350°)9.2 mphClear
10:00 AM60.8 °F51.8 °F72 %30.30 inNNW (330°)10.4 mphClear
11:00 AM66.2 °F48.2 °F52 %30.30 inNorth (350°)12.7 mphClear
12:00 PM68.0 °F44.6 °F43 %30.27 inNorth (360°)12.7 mphClear
1:00 PM69.8 °F44.6 °F40 %30.24 inNorth (350°)13.8 mphClear
2:00 PM69.8 °F48.2 °F46 %30.21 inNorth (360°)12.7 mphClear
3:00 PM69.0 °F46.0 °F33 %30.20 in12.0 miNorth (10°)13.8 mph
3:00 PM69.8 °F46.4 °F43 %30.18 inNorth (10°)13.8 mphClear
4:00 PM68.0 °F48.2 °F49 %30.18 inNorth (360°)13.8 mphClear
5:00 PM64.4 °F50.0 °F59 %30.18 inNorth (360°)10.4 mphClear
6:00 PM62.6 °F50.0 °F63 %30.18 inNorth (360°)9.2 mphClear
7:00 PM60.8 °F50.0 °F68 %30.21 inNorth (350°)9.2 mphClear
8:00 PM59.0 °F51.8 °F77 %30.21 inNorth (350°)11.5 mphClear
9:00 PM59.0 °F53.0 °F73 %30.23 in12.0 miNNW (340°)12.7 mph
9:00 PM59.0 °F51.8 °F77 %30.21 inNNW (340°)12.7 mphClear
10:00 PM59.0 °F53.6 °F82 %30.24 inNorth (350°)11.5 mphClear
11:00 PM57.2 °F53.6 °F88 %30.24 inNNW (330°)9.2 mphClear
Hourly data recorded from SBFL, located miles away from Florianopolis, Santa Catarina







STORIES FROM OUR PARTNERS